Location: Unspecified
(22.6800°N, 112.2000°E)
Time: 12:22:41
(UTC+08:00)

Transit 2A - Pass Details

Date: 10 August 2021
Orbit: 594 x 964 km, 66.7° (Epoch: 21 September)

Event Time Altitude Azimuth Distance (km) Brightness Sun altitude
Rises 03:01:15 0° 175° (S) 2,823 - -37.9°
Reaches altitude 10° 03:03:48 10° 161° (SSE) 1,917 - -37.4°
Maximum altitude 03:07:13 24° 107° (ESE) 1,260 - -36.9°
Exits shadow 03:09:37 15° 65° (ENE) 1,631 8.3 -36.5°
Drops below altitude 10° 03:10:43 10° 54° (NE) 1,960 8.9 -36.3°
Sets 03:13:21 0° 40° (NE) 2,904 10.0 -35.8°
